RH
6 5 5 5 5 5 4 4 4 5 6 5 5 5 5 5 5 5 6 6 6 6 6 8 13 17 18 19 18 16 13 11 9 8 7 6 6 7 9 12 13 14 15 16 18 21 24 28 30 31 31 30 26 21 17 13 10 10 11 13 16 19 21 23 26 26 23 19 17 22 28 32 39 49 56 59 61 61 59 55 51 46 41 38 39
6 6 5 5 5 5 5 4 4 5 6 5 5 5 5 5 5 5 5 5 6 6 5 8 13 17 18 18 18 15 11 10 8 7 6 6 6 7 11 15 16 18 19 20 21 23 25 28 30 31 31 30 24 18 16 15 12 10 11 12 15 19 21 24 26 27 23 17 19 26 30 35 45 54 57 58 57 54 49 44 42 41 39 37 37
5 6 6 5 5 6 5 4 4 5 5 5 5 5 5 5 5 5 5 5 6 6 5 7 11 16 18 19 18 15 12 11 9 7 6 7 8 9 13 18 21 24 26 26 26 27 27 28 30 31 31 27 22 15 12 13 12 10 10 11 14 18 22 26 28 24 17 16 23 30 30 35 48 55 56 55 52 49 47 45 44 41 37 33 32
6 5 7 6 5 6 6 5 4 5 5 5 5 5 5 5 5 5 5 5 5 6 5 6 9 13 17 18 18 15 13 12 10 8 8 9 11 13 17 23 26 28 31 31 31 31 30 28 29 30 29 24 18 13 10 10 11 10 9 11 14 18 24 29 27 19 15 20 29 32 32 39 49 52 52 51 49 49 50 47 42 37 32 30 29
9 6 6 6 6 5 6 7 5 4 6 5 5 6 5 5 5 5 5 5 5 5 5 5 8 11 15 17 18 16 14 13 11 9 9 9 13 18 22 27 30 32 33 35 36 35 33 30 29 27 25 21 16 12 9 9 9 9 9 10 13 19 27 31 24 18 22 28 30 31 35 44 51 50 49 49 49 50 46 39 34 31 31 31 31
16 10 6 6 6 5 5 7 6 4 5 6 6 6 6 5 5 5 5 5 5 5 5 5 6 10 13 16 18 17 15 13 11 8 8 9 13 21 27 31 34 35 36 38 39 36 33 31 29 26 22 18 14 12 10 9 8 8 8 10 14 22 31 31 22 23 30 31 30 35 41 46 51 54 55 57 55 50 41 37 38 36 35 37 36
21 15 9 6 6 6 5 6 7 5 5 6 6 6 6 6 6 5 5 5 5 4 4 5 6 8 11 15 17 17 15 14 11 8 7 7 12 21 29 34 37 38 39 39 38 34 31 30 28 25 22 17 13 12 10 9 9 8 8 11 17 27 34 29 24 30 37 36 40 47 48 47 49 56 63 66 65 59 49 46 50 46 37 37 39
26 19 14 9 6 6 6 5 6 6 5 6 6 5 6 6 6 6 5 5 5 4 4 4 5 7 10 13 16 17 16 14 11 8 6 7 13 23 31 36 38 38 38 38 36 32 29 27 25 23 20 17 13 12 11 10 9 9 10 14 22 31 33 27 28 37 42 44 51 55 52 48 50 58 66 68 65 64 58 52 54 51 36 30 33
33 23 16 12 8 7 6 5 5 5 5 5 5 5 5 5 6 6 6 5 5 4 4 4 5 7 8 12 15 17 16 14 11 8 5 7 16 26 33 37 37 37 37 36 34 31 27 23 22 20 18 15 13 13 13 11 12 12 14 21 29 34 32 27 33 42 45 49 55 55 53 52 54 60 67 65 58 55 54 50 50 47 37 33 35
41 31 19 14 10 8 7 6 5 5 5 5 5 5 5 4 5 5 5 6 5 4 4 4 5 7 8 11 14 16 16 14 11 8 5 8 18 27 33 37 38 38 37 34 31 28 23 19 17 17 16 14 13 15 15 14 14 16 22 28 33 35 32 28 35 45 49 54 57 54 54 56 58 62 65 62 55 49 49 48 47 45 39 38 41
47 40 27 16 10 8 8 7 6 5 4 5 5 5 5 4 4 5 4 5 5 5 4 4 4 6 8 10 13 16 16 15 12 8 5 8 18 27 32 36 39 40 38 34 30 25 20 16 14 13 14 13 14 16 17 17 18 23 29 34 36 36 31 30 37 45 49 55 58 56 55 55 56 60 62 58 54 49 46 46 44 41 37 35 37
50 48 38 23 12 8 8 7 7 6 4 5 4 4 5 4 4 4 4 4 5 4 4 4 4 6 8 10 13 15 16 15 12 9 5 7 16 26 31 34 40 42 41 37 31 25 20 15 12 12 12 14 17 18 19 20 23 29 35 38 38 35 30 31 38 43 46 51 56 58 58 55 55 59 59 54 51 48 46 46 43 38 33 31 32
55 54 47 32 18 9 7 7 8 7 5 4 4 4 5 4 4 4 3 3 4 4 4 4 4 5 7 10 12 13 14 14 12 8 5 6 13 24 30 34 40 44 43 41 35 28 22 16 12 12 13 16 20 21 21 23 26 30 35 38 37 31 28 32 38 43 45 47 51 55 55 52 52 57 59 54 50 45 41 43 41 35 31 30 29
63 57 51 41 27 14 8 7 8 8 6 4 3 4 4 4 4 3 3 4 4 4 4 4 4 4 6 9 11 12 12 12 11 9 6 4 11 23 30 34 41 47 46 44 40 33 26 19 15 15 17 20 23 24 24 25 27 31 34 36 35 30 27 32 38 41 41 41 46 52 53 51 51 56 59 57 50 41 35 36 36 31 28 28 27
68 60 53 47 38 23 11 8 9 9 8 5 4 3 4 4 4 3 3 3 3 4 4 4 4 4 4 6 9 10 11 11 9 8 6 4 8 20 30 35 44 50 49 47 44 40 33 25 19 19 22 25 26 26 25 26 28 32 34 36 36 33 30 32 36 38 35 35 39 44 48 50 51 55 58 54 45 36 33 36 37 30 25 25 24
70 64 56 51 47 36 21 10 8 9 9 7 5 4 3 3 4 3 3 4 4 4 4 4 4 4 3 4 6 7 9 10 8 7 7 5 7 18 29 37 46 52 52 50 49 45 39 31 25 24 26 28 29 28 27 27 29 32 36 38 39 36 33 34 38 38 33 30 34 39 43 48 52 57 60 54 42 33 31 37 37 29 22 23 23
68 66 60 55 52 48 36 20 10 8 9 9 7 6 5 4 3 3 3 4 4 4 4 4 4 4 3 3 4 5 6 7 7 6 6 5 6 15 28 38 47 52 53 53 52 50 45 37 31 29 30 30 31 30 29 28 29 32 36 39 39 37 36 39 43 42 35 31 34 38 41 47 54 59 61 56 45 33 31 38 39 31 25 25 23
65 67 65 59 56 54 46 33 21 11 8 8 8 7 6 5 5 5 4 4 5 5 5 5 4 4 4 3 3 4 4 4 5 5 6 6 5 13 26 38 46 52 54 55 55 54 51 43 36 34 33 33 34 33 32 30 31 33 36 37 36 37 40 42 43 42 38 36 36 35 37 44 53 58 57 50 44 38 36 40 41 35 31 28 23
64 70 68 62 59 56 48 40 33 23 13 11 9 7 7 6 5 6 6 6 6 6 6 7 6 5 4 3 3 3 3 3 3 3 5 5 5 12 26 37 44 51 54 55 54 54 54 50 43 38 37 37 37 36 35 33 33 35 36 36 38 42 44 40 38 39 39 36 31 29 32 40 49 54 49 42 40 40 40 41 39 34 31 28 23
68 73 70 65 62 57 48 40 39 34 24 18 15 11 9 7 6 7 7 7 8 8 8 8 7 6 5 4 3 3 3 3 3 2 4 4 4 11 24 35 43 49 52 52 52 52 53 52 50 46 42 41 40 39 38 37 36 37 38 39 43 47 45 39 36 39 39 34 30 27 28 36 46 48 41 38 41 42 39 40 39 35 30 26 23
71 73 72 70 67 63 53 42 39 39 32 24 19 14 10 8 7 7 8 8 8 8 9 9 7 6 6 5 3 3 3 3 3 3 3 4 4 10 22 34 42 47 48 48 49 49 47 45 48 50 48 45 44 43 41 39 38 40 44 45 47 48 46 42 42 40 35 31 29 26 28 37 46 47 43 45 50 47 41 39 38 32 27 23 21
72 75 78 79 76 69 57 44 40 42 36 28 20 13 8 8 7 7 8 9 10 10 9 9 7 5 5 4 3 3 2 2 3 3 3 4 5 11 24 35 41 44 45 46 47 47 42 36 39 48 52 50 48 46 43 41 40 44 48 50 49 48 47 46 45 42 36 31 28 27 31 37 43 48 52 56 58 56 51 44 38 31 25 21 20
78 83 87 87 82 69 53 43 43 45 40 31 21 11 6 6 6 7 8 8 9 9 7 6 5 4 4 3 2 2 2 3 3 3 3 3 6 15 27 35 41 44 45 45 44 39 32 25 30 44 55 57 54 50 46 44 44 46 49 51 51 49 47 45 42 40 38 35 31 32 36 39 43 50 56 58 58 57 51 43 37 31 25 22 21
87 89 91 91 81 63 49 44 49 51 43 32 21 10 6 6 6 6 7 7 6 6 5 4 4 3 3 3 3 3 3 3 3 4 6 8 12 22 31 37 41 43 42 39 34 27 22 23 36 54 63 63 59 54 48 47 47 47 47 47 48 46 44 41 40 39 37 35 34 36 41 45 50 56 58 58 57 54 48 40 34 28 24 22 22
91 90 92 90 73 55 50 53 57 54 44 30 19 10 6 5 6 7 6 5 5 4 3 3 3 3 3 3 3 3 3 4 6 8 12 16 20 28 34 37 39 38 35 31 26 23 24 31 46 64 70 67 62 57 53 50 48 47 47 46 45 44 42 40 40 39 37 37 39 43 50 56 59 59 57 55 53 50 46 38 28 23 22 22 23
86 89 90 83 64 53 58 63 60 52 41 28 17 10 6 5 5 6 5 5 4 3 3 3 3 3 3 3 4 5 6 9 13 16 20 24 26 30 34 35 35 33 28 25 27 34 42 49 58 67 71 70 65 60 55 53 50 49 50 49 47 43 41 41 41 39 39 43 47 51 58 63 63 58 53 50 48 46 41 31 23 21 22 23 23
78 87 85 69 55 58 67 66 57 49 39 27 16 8 5 5 5 4 4 4 3 2 2 3 3 5 7 9 11 13 15 18 22 23 24 26 28 28 29 28 27 25 23 27 38 50 60 67 72 72 70 70 68 60 54 53 51 50 50 49 47 44 41 41 41 41 45 52 57 61 64 66 63 57 50 44 40 37 31 23 20 21 23 23 24
77 82 73 57 53 65 70 63 54 46 34 23 14 8 5 5 5 5 5 4 4 4 5 7 10 13 18 21 21 22 24 26 27 27 27 28 30 29 27 26 25 24 26 35 49 59 64 71 78 78 73 71 68 62 57 54 52 50 49 47 45 43 43 45 48 53 60 65 67 68 68 65 60 54 46 38 31 26 22 20 21 23 23 24 24
75 69 57 51 59 70 70 61 54 45 32 22 15 8 6 5 5 6 6 5 5 7 10 14 19 22 26 28 26 26 27 28 29 30 31 32 34 33 33 34 35 36 38 42 48 54 57 62 69 72 72 70 67 62 57 53 49 47 47 47 46 47 53 60 64 68 71 70 68 67 64 59 53 46 37 27 21 19 19 19 22 24 24 24 24
69 59 52 57 69 76 74 67 57 45 35 26 16 8 7 7 6 7 8 8 13 20 25 29 32 31 31 31 29 30 33 36 39 41 42 43 45 46 48 50 51 53 54 53 52 53 54 54 56 57 59 60 60 58 55 52 50 52 55 56 56 58 64 71 73 73 72 69 66 63 56 47 39 31 24 19 17 18 20 22 23 25 25 24 24
65 63 63 71 79 81 78 74 64 51 40 30 20 12 9 9 10 11 11 15 28 41 46 47 45 42 40 41 42 44 48 50 52 54 55 56 59 61 63 65 65 65 64 63 63 63 62 62 61 59 59 60 60 60 59 59 60 63 65 67 68 68 69 71 71 70 69 66 61 54 45 34 26 20 17 17 18 19 22 24 25 25 25 25 24
66 72 75 78 83 84 81 79 73 61 48 37 27 19 15 14 16 16 14 18 33 49 56 55 51 48 48 53 57 59 61 61 62 63 63 63 65 66 68 68 68 68 67 67 67 67 67 67 68 67 66 65 63 61 60 61 61 61 60 61 63 65 65 65 64 64 63 59 51 42 33 25 20 17 16 17 20 22 24 25 26 26 26 25 25
66 73 76 79 82 83 81 80 77 69 58 47 38 31 25 23 23 25 27 31 37 47 55 58 55 53 54 60 64 65 67 68 68 67 67 67 67 68 68 68 67 67 67 67 67 67 68 68 69 68 67 66 66 65 64 61 58 57 57 55 55 56 55 56 59 58 55 48 38 30 25 20 16 16 18 20 22 25 25 26 27 27 26 26 26
65 69 73 77 79 79 78 76 74 72 67 58 49 43 37 31 29 34 43 47 46 46 49 52 54 56 59 63 65 66 68 69 69 68 68 68 68 69 69 68 66 65 66 67 67 68 68 68 68 68 65 63 63 63 62 59 58 58 55 50 51 52 49 48 51 53 48 40 30 23 18 17 16 18 21 23 25 26 28 29 29 28 28 28 27
58 63 69 71 71 73 75 71 68 70 73 68 60 54 47 39 36 39 46 51 50 48 48 50 53 58 62 64 66 67 68 69 70 70 70 70 71 71 68 65 64 65 67 68 70 72 72 71 69 67 64 62 62 59 56 56 58 56 46 38 41 49 53 55 57 55 45 33 24 18 15 16 18 21 24 26 28 31 32 31 30 29 29 29 28
53 59 64 66 66 66 67 67 68 71 74 73 69 65 58 50 42 41 44 48 48 49 53 57 59 61 63 64 65 66 68 70 71 70 70 71 72 69 64 62 64 66 68 71 72 72 69 63 56 52 50 49 48 45 42 42 43 40 31 24 23 29 37 45 49 45 34 23 17 16 18 20 24 28 31 33 35 38 37 33 30 29 29 28 28
56 64 68 67 65 61 59 65 72 76 77 76 73 70 67 61 53 47 45 47 49 52 57 60 61 63 64 64 64 65 67 69 69 68 68 69 68 65 64 64 66 69 72 73 71 69 64 53 39 32 31 30 26 24 23 22 22 21 18 15 14 14 17 21 24 22 18 17 17 21 26 30 34 38 41 41 40 39 36 32 29 29 28 28 29
58 69 71 68 66 62 60 64 69 70 70 69 70 71 73 72 67 59 52 49 50 53 56 59 61 64 65 65 65 66 66 68 68 68 68 69 69 68 68 68 70 72 73 73 69 61 49 33 19 13 15 17 15 14 14 12 11 13 15 16 19 23 26 27 26 22 19 20 25 30 35 39 41 42 43 41 38 35 32 29 28 28 28 29 30
55 62 63 62 65 67 68 67 64 60 60 61 64 70 75 76 74 70 62 55 52 51 52 54 57 60 62 65 67 68 69 70 71 70 71 72 72 70 70 71 74 76 76 76 71 53 30 17 17 19 19 17 14 13 13 14 16 19 21 23 27 33 38 42 43 40 36 35 36 37 40 42 41 39 37 35 33 29 28 28 28 29 30 31 30
51 56 58 60 63 66 68 68 66 67 69 71 74 78 79 77 76 76 73 68 64 60 58 59 58 57 57 58 61 63 66 68 69 69 68 67 67 66 66 65 67 71 72 69 58 35 16 17 32 41 39 34 28 20 16 18 22 25 26 29 35 41 46 50 52 51 50 48 44 39 38 37 35 33 32 31 29 27 28 29 30 30 31 31 29
53 57 61 65 67 67 67 67 71 76 78 76 79 86 84 77 74 75 74 72 70 66 63 65 67 65 62 59 58 60 63 66 67 67 64 62 61 59 54 49 46 47 48 44 34 20 12 18 32 40 41 39 34 26 23 25 29 32 35 40 47 52 54 54 53 51 52 51 46 40 36 34 31 30 29 28 27 28 30 31 32 32 31 29 25
54 59 63 65 67 68 69 69 72 81 85 79 75 78 77 71 68 68 65 61 59 56 54 55 58 60 62 61 60 60 60 59 58 56 52 49 44 39 32 28 25 23 21 17 13 10 10 17 30 41 44 39 34 34 37 40 44 46 49 51 52 52 51 49 48 46 45 43 39 36 34 32 29 28 27 28 30 32 33 33 33 30 26 21 17
48 56 62 63 62 63 69 71 69 72 81 82 75 71 70 66 61 58 54 51 50 48 45 44 43 44 45 46 46 45 44 41 38 36 32 28 24 19 16 15 13 11 13 18 22 22 22 27 35 42 43 41 40 43 47 50 52 52 51 49 46 43 41 40 39 37 35 33 31 30 29 29 29 30 31 33 35 35 33 31 27 22 18 14 12
43 47 51 55 56 57 62 69 73 75 81 81 73 66 67 67 62 58 55 51 48 46 42 38 35 33 32 31 30 29 28 26 25 23 20 16 14 12 13 14 13 13 19 31 42 46 45 45 43 41 38 37 40 43 46 46 44 42 41 40 38 37 35 34 32 31 30 30 29 29 30 32 34 37 38 38 36 32 27 22 18 14 12 11 11
33 34 35 40 47 48 51 63 75 79 80 78 71 68 73 77 74 68 62 54 48 45 42 37 32 28 25 24 24 23 22 21 20 17 15 15 15 14 13 14 16 16 19 25 31 35 37 38 38 37 34 31 30 32 33 33 31 31 32 32 30 29 28 28 28 29 30 31 32 34 37 40 41 40 37 32 27 21 16 14 12 11 10 10 11
26 24 28 37 43 45 53 68 78 74 71 74 72 70 74 79 76 69 63 57 52 49 45 39 35 32 27 25 23 21 19 17 16 16 18 24 27 24 18 14 15 16 17 18 19 21 23 24 25 25 24 23 22 23 23 24 25 26 26 25 25 26 27 29 30 32 34 37 41 42 42 39 34 28 23 18 15 13 12 11 11 11 11 11 14
45 38 44 54 57 55 62 76 85 82 79 78 72 64 64 67 65 61 59 58 57 54 50 45 44 43 40 34 29 26 24 24 27 33 38 39 36 30 22 18 19 21 21 21 21 21 20 20 20 19 19 19 20 21 21 22 23 24 25 26 28 30 31 34 37 40 43 44 42 36 29 23 19 15 13 12 12 12 11 11 10 11 13 16 21
63 61 63 68 71 69 70 76 84 89 88 85 80 75 73 70 65 59 55 56 58 60 61 64 66 66 62 53 44 39 40 43 45 48 47 43 38 35 32 31 32 33 32 30 29 28 27 27 28 28 28 28 28 28 28 29 30 31 32 34 35 37 39 42 45 46 43 36 28 21 17 15 15 14 14 13 12 12 11 11 11 12 15 20 27
53 59 62 66 72 77 76 76 80 85 86 85 86 86 84 80 76 71 65 62 62 62 65 70 73 70 64 55 44 37 38 40 41 40 40 39 40 40 40 40 41 41 39 36 35 34 34 34 33 33 34 35 36 36 37 38 39 39 41 41 42 43 46 47 44 38 29 22 18 17 18 18 18 16 15 13 13 12 12 11 11 14 19 24 31
51 50 51 53 60 68 73 76 82 87 86 85 85 83 79 75 74 72 71 72 72 70 69 70 69 65 62 57 48 39 36 36 38 39 40 42 44 44 44 43 43 42 42 41 41 41 41 40 38 36 36 36 38 39 40 40 42 43 43 44 46 48 48 42 33 24 20 20 22 23 23 22 19 17 16 15 13 12 12 13 14 18 25 31 35
59 59 56 54 55 57 61 68 79 86 87 86 86 87 85 81 77 71 69 72 76 77 77 76 73 70 69 68 63 55 48 45 45 46 47 48 49 49 48 48 46 45 45 46 45 45 45 45 43 42 41 40 41 41 42 42 44 44 45 48 50 48 42 33 25 22 25 27 27 27 26 23 20 18 18 17 16 15 15 16 19 25 33 38 41
Wind_Speed
33 35 36 36 35 34 32 30 29 28 28 28 27 26 25 25 24 24 23 22 21 20 19 19 20 20 19 18 17 15 13 11 9 8 7 6 6 6 6 5 5 5 5 5 5 4 5 5 5 5 5 5 4 4 7 9 10 8 7 6 5 5 5 4 3 2 3 4 5 6 7 8 9 10 12 12 13 13 14 14 16 17 19 20 21
32 34 35 36 36 35 33 32 31 30 30 29 28 27 26 25 25 24 23 22 22 22 21 21 21 21 21 20 18 16 14 12 10 9 8 8 8 7 7 6 6 6 6 6 6 5 6 5 5 6 6 6 4 3 5 9 11 11 9 7 6 6 5 4 2 1 1 2 4 5 6 7 8 9 11 11 12 12 13 14 16 17 19 20 22
31 33 35 36 36 36 35 33 32 31 30 29 29 28 27 26 26 25 24 23 23 23 22 22 22 23 22 22 20 18 15 13 11 10 9 9 9 9 8 8 7 6 6 6 6 6 7 6 6 6 6 6 5 3 4 8 12 12 11 9 8 6 5 4 2 2 1 1 3 4 5 6 7 8 9 11 12 13 15 17 18 20 21 21 22
30 33 34 35 37 37 36 34 33 32 31 30 29 28 28 27 27 26 26 25 25 25 24 23 23 23 24 23 22 20 18 15 13 11 10 10 10 10 9 9 8 7 7 6 6 6 7 7 7 6 6 6 5 3 4 8 12 13 12 11 9 8 6 5 4 3 2 2 2 2 3 4 5 6 9 12 13 14 16 17 19 22 24 26 26
26 30 34 35 36 37 37 35 34 33 31 31 30 29 29 28 28 28 27 27 26 26 25 24 24 24 25 25 24 22 20 17 14 12 11 10 11 10 10 10 9 9 8 7 6 6 7 7 7 6 5 5 5 4 5 8 11 13 13 12 10 9 8 6 5 4 5 4 2 1 2 4 6 8 10 12 13 15 17 18 20 22 25 27 29
22 27 32 35 36 37 37 36 35 33 32 32 31 31 30 29 29 29 28 28 28 28 27 26 25 26 27 27 26 24 21 18 15 13 12 11 12 12 11 11 10 10 9 8 7 6 6 7 7 6 4 4 5 5 5 8 11 13 14 12 11 10 9 7 6 5 6 5 3 1 3 4 6 9 11 12 14 15 17 19 22 24 25 27 29
21 24 29 33 35 36 37 37 36 34 34 33 33 32 31 29 29 29 29 28 28 28 28 27 27 27 28 29 28 25 22 18 15 13 13 13 13 13 13 12 11 10 10 9 7 6 6 6 7 6 4 4 5 6 6 8 11 13 14 13 12 11 9 7 6 6 5 4 2 2 4 5 6 8 11 12 14 16 18 20 22 24 25 26 27
21 23 27 31 33 35 36 37 37 36 36 35 34 33 31 30 29 29 29 28 28 29 29 28 28 27 28 29 28 26 22 19 16 14 14 14 14 14 14 13 11 10 10 9 7 7 7 6 7 6 5 5 6 7 7 8 11 13 14 14 13 11 10 8 7 7 6 5 3 3 4 6 7 8 10 12 14 16 18 19 21 22 23 24 26
22 22 25 28 31 34 35 36 37 38 37 36 36 34 32 31 30 29 28 28 28 29 30 29 28 27 28 28 28 25 22 19 17 16 16 15 15 14 14 13 11 9 9 8 8 7 7 7 7 7 6 7 8 8 8 9 11 13 14 14 13 12 10 9 9 9 8 7 5 4 5 6 7 8 10 12 14 15 17 19 21 22 23 24 27
22 21 23 25 29 33 35 36 37 38 38 37 36 35 34 32 31 29 29 29 28 28 30 30 29 28 28 27 27 25 22 20 19 18 17 15 15 14 13 13 11 9 8 8 8 8 8 8 8 8 8 8 9 9 9 10 12 13 14 14 13 12 12 11 11 11 10 8 6 6 6 7 8 9 11 13 14 15 17 19 21 22 24 25 28
23 21 22 24 27 31 34 36 36 37 38 38 37 36 35 34 32 30 30 29 28 28 29 30 30 29 28 27 27 25 23 21 20 19 18 16 15 14 13 13 11 9 8 8 8 8 8 9 9 9 10 10 10 10 9 11 12 13 14 14 13 13 13 12 12 13 11 9 7 7 7 7 8 10 13 14 15 16 17 19 21 23 24 26 28
25 23 23 24 25 27 32 34 35 36 37 38 38 37 36 35 33 32 31 30 29 28 28 29 30 30 28 27 27 26 25 23 21 20 18 16 15 14 14 13 12 10 9 9 8 9 9 9 10 11 11 11 11 10 10 11 13 13 13 14 14 14 14 13 13 13 12 10 8 8 8 9 9 12 14 15 16 17 18 20 22 23 25 27 29
28 25 24 23 23 25 29 32 34 35 35 37 38 38 37 36 34 32 32 31 31 29 28 29 31 31 30 28 28 27 26 24 23 22 20 17 16 15 14 14 13 12 10 9 9 9 9 10 11 12 13 12 11 11 11 12 13 14 14 14 15 15 15 14 14 13 13 12 10 9 10 11 11 13 16 17 17 18 18 20 22 23 25 28 31
31 27 25 23 22 24 28 30 32 33 33 35 37 38 37 36 35 34 33 32 31 30 29 29 30 31 32 30 29 29 28 26 24 23 21 19 18 16 15 15 14 13 12 11 10 10 10 10 11 12 13 12 12 11 12 12 13 14 15 15 15 15 15 16 15 14 14 13 11 10 12 13 13 15 17 18 18 19 19 20 22 23 25 28 31
32 29 26 24 23 24 26 29 31 31 31 32 34 36 37 36 35 35 34 32 31 30 30 30 31 31 32 32 32 31 29 27 26 25 23 21 19 17 16 15 15 14 13 12 11 10 10 10 11 12 12 12 12 12 12 12 13 14 15 16 16 16 16 17 16 16 15 14 12 12 13 14 15 16 18 19 19 20 21 22 24 24 25 27 31
33 31 27 25 23 24 26 27 29 30 31 31 31 34 35 36 35 35 35 33 32 31 31 31 31 32 33 33 33 32 31 29 28 27 25 22 21 18 16 15 15 15 15 13 11 10 10 10 11 12 13 13 13 13 13 13 13 14 15 16 17 17 17 17 17 17 17 15 13 14 15 16 17 19 20 22 22 21 22 23 25 25 25 27 30
33 31 28 26 24 26 26 26 27 29 30 30 30 31 32 34 35 35 35 34 33 32 32 32 32 33 33 33 33 33 33 31 30 29 27 24 22 20 18 17 17 17 16 13 11 10 10 10 11 13 13 14 14 14 14 13 13 14 16 17 18 18 18 17 18 19 18 16 15 16 17 18 19 20 21 23 24 24 24 26 28 29 29 30 31
32 30 29 27 26 27 27 25 25 27 29 30 31 31 31 32 33 34 35 35 34 33 33 33 33 33 33 32 33 33 33 33 32 30 28 25 24 22 20 18 18 18 17 15 12 11 11 11 12 13 13 15 16 15 14 13 13 14 16 18 19 19 18 19 20 20 19 18 18 18 19 20 21 22 22 23 24 26 26 28 31 32 33 34 34
31 30 30 28 27 28 28 25 24 26 27 29 31 32 32 32 33 33 34 35 34 34 33 33 32 32 32 32 32 33 33 33 32 31 29 26 25 24 22 20 19 19 18 17 15 13 12 12 13 13 14 16 16 16 15 14 13 15 16 17 18 19 19 21 21 20 20 20 20 20 20 21 23 23 24 24 25 27 28 29 31 33 35 36 37
31 31 30 29 28 29 29 26 24 24 26 28 30 32 33 33 33 33 34 34 34 34 33 32 31 31 31 31 31 32 33 32 31 30 29 27 26 25 24 22 21 21 20 19 17 15 14 14 13 14 15 16 17 17 17 15 15 15 16 17 18 20 21 21 21 21 21 21 21 21 21 22 24 25 25 25 27 28 29 31 33 35 37 38 38
32 32 31 30 29 29 29 27 25 25 26 27 28 31 33 33 33 32 32 33 33 33 32 31 31 30 30 30 31 32 33 32 30 29 28 27 27 27 25 24 23 23 22 21 19 18 16 15 15 16 17 18 19 19 18 17 16 17 17 18 19 20 21 21 22 22 21 21 21 21 22 23 24 26 26 28 29 31 32 33 35 37 38 39 39
34 33 32 31 30 30 30 29 27 26 26 26 27 29 31 33 33 32 32 32 31 31 31 30 30 30 29 29 30 30 31 30 28 27 27 28 27 27 26 25 25 24 23 23 22 20 19 17 17 18 18 19 20 20 19 18 17 18 18 20 21 21 22 23 23 23 22 22 21 22 22 23 25 26 28 29 31 33 35 36 37 39 40 40 40
35 34 33 32 31 30 30 30 29 27 27 26 26 27 29 32 32 31 31 31 30 30 31 30 30 29 28 28 29 29 29 29 27 27 27 27 27 27 27 26 25 25 24 23 23 23 21 20 19 19 20 21 21 21 19 19 19 20 21 22 22 23 24 25 25 24 24 23 22 23 23 24 25 27 29 30 32 33 36 37 39 40 41 41 41
36 35 34 33 31 30 30 30 29 28 27 27 27 27 28 30 31 31 31 31 30 30 30 29 29 28 27 28 28 28 28 27 26 26 26 27 27 26 26 26 26 26 25 25 25 25 23 21 20 19 19 20 21 21 21 21 22 22 23 24 26 26 27 27 26 26 25 24 23 23 24 25 27 28 30 32 33 35 36 38 39 40 40 40 41
38 37 36 35 32 31 30 30 29 29 28 27 27 27 28 28 29 30 30 30 29 29 29 28 27 27 27 27 26 26 26 25 25 25 26 27 27 27 27 27 27 27 26 26 26 24 22 21 21 21 20 21 22 24 24 23 24 24 26 27 28 28 28 28 28 27 25 25 24 24 25 27 29 30 32 33 35 36 38 39 39 39 39 40 41
39 39 38 36 33 31 30 29 29 29 28 27 27 27 27 28 28 29 30 29 28 27 27 27 26 26 25 25 25 25 25 25 26 26 26 27 27 27 27 27 27 27 27 26 24 22 21 22 23 23 22 23 24 25 25 24 25 26 28 29 29 30 29 28 27 27 26 25 25 25 26 29 31 32 33 35 36 38 39 39 39 39 39 41 42
41 40 38 36 33 31 30 29 29 29 27 27 27 27 27 28 28 28 28 27 27 27 26 26 26 25 24 25 25 26 26 26 26 26 26 27 27 27 27 27 27 27 25 24 22 21 22 24 25 26 26 26 26 26 25 26 27 28 30 30 31 30 28 27 27 27 26 26 26 27 29 31 33 34 35 36 37 39 39 39 39 39 40 42 43
42 40 38 35 33 31 30 29 29 28 27 27 27 28 28 28 27 27 27 27 27 27 27 26 26 25 25 26 27 26 26 26 26 26 25 25 24 24 24 24 23 22 21 21 21 22 23 24 26 27 27 27 27 26 27 28 29 30 30 31 30 28 27 26 26 26 26 27 28 30 32 34 35 36 37 38 39 39 39 39 40 40 42 43 44
41 40 37 35 33 31 30 30 29 28 28 29 29 29 29 29 28 28 29 29 28 28 27 27 27 26 26 27 27 26 25 25 24 23 22 21 20 20 20 20 19 19 18 18 19 20 20 21 23 25 26 27 27 27 28 29 29 29 29 29 27 26 25 26 27 27 28 30 31 32 34 36 37 38 39 39 39 39 39 40 40 42 43 44 45
40 38 36 34 33 31 30 30 29 29 29 29 29 29 29 29 30 29 29 28 28 28 28 28 27 27 27 27 26 25 24 23 21 21 20 19 19 19 19 18 18 18 18 18 18 17 17 17 19 21 22 24 25 26 27 27 27 27 26 27 27 26 26 28 30 31 32 33 33 34 36 37 39 40 40 39 39 39 40 41 42 43 45 46 47
38 36 35 33 33 33 32 31 29 29 29 29 29 30 31 31 31 30 30 29 30 30 30 29 29 28 27 26 25 24 23 22 21 21 20 20 19 19 20 20 20 20 20 20 19 19 19 19 19 20 21 22 24 25 26 26 26 26 27 27 29 30 31 33 35 35 35 35 35 35 37 38 40 40 40 40 40 40 41 42 43 45 46 47 48
38 35 35 35 35 34 34 33 31 30 31 31 31 32 33 33 33 32 32 32 33 33 32 32 31 30 28 27 26 25 25 24 23 23 23 23 23 22 23 24 24 24 24 24 23 23 23 24 24 24 25 25 26 27 28 29 29 29 30 31 32 34 36 38 39 38 37 36 35 36 37 39 41 41 40 40 40 41 42 43 45 46 47 48 49
38 37 36 37 37 36 36 35 33 33 33 32 32 33 34 34 34 34 34 34 34 34 34 33 33 31 30 30 29 28 28 27 27 27 27 27 27 26 26 27 27 27 26 26 26 26 27 27 28 28 29 30 31 32 32 33 32 33 34 35 36 37 39 39 39 37 36 36 36 36 38 40 41 40 40 41 41 43 44 45 46 47 48 50 50
39 39 39 38 38 39 39 37 35 36 36 35 34 35 36 36 36 36 36 35 35 35 34 34 34 33 33 32 32 32 32 31 32 32 32 31 31 31 31 31 30 30 29 28 28 28 29 30 30 31 32 34 35 35 36 36 35 36 37 37 39 41 42 39 37 37 37 37 37 38 40 41 41 41 41 42 43 44 45 46 47 48 49 51 51
41 40 41 40 39 40 41 40 38 38 39 38 37 38 38 38 38 38 37 37 37 36 35 35 35 35 35 35 35 35 35 35 36 36 36 35 35 35 35 34 33 33 32 32 31 31 31 32 33 34 35 36 37 38 38 38 38 38 38 38 39 40 40 38 38 38 38 38 38 40 41 41 41 42 43 44 45 46 47 48 49 49 50 52 52
43 43 42 41 41 41 42 41 41 41 41 40 40 40 40 40 39 39 40 40 39 38 37 37 37 38 38 38 38 38 38 38 38 38 38 38 39 39 39 37 36 36 36 35 34 34 34 34 35 36 36 37 38 39 39 39 38 38 38 37 37 36 36 36 38 39 39 39 39 40 41 42 43 44 46 47 47 48 49 50 50 51 52 53 54
44 44 43 41 41 43 44 43 43 43 43 43 43 44 43 42 41 41 42 43 43 41 40 41 40 40 39 39 39 39 40 41 41 41 41 41 42 42 41 40 39 39 38 37 37 36 37 37 38 38 38 37 38 38 38 38 38 37 36 35 34 34 33 34 36 37 37 38 39 40 42 44 45 47 48 49 49 50 50 51 52 52 53 54 55
45 44 43 43 42 43 44 44 44 44 45 45 46 46 45 45 45 45 46 47 46 46 45 45 44 43 41 41 41 41 43 44 44 43 43 44 44 43 43 42 43 42 41 39 39 39 40 40 38 37 36 35 35 35 35 35 34 34 32 31 31 32 33 34 35 36 37 38 40 41 44 46 48 49 49 50 51 51 51 52 53 54 55 56 56
46 45 44 44 43 43 44 45 45 46 46 46 47 46 45 45 46 47 49 49 49 48 47 47 47 46 45 44 43 44 45 45 45 44 45 46 46 45 44 44 45 46 45 43 42 42 42 41 38 35 33 33 33 32 32 32 31 31 30 31 32 33 34 34 35 36 38 39 40 42 45 47 49 50 50 51 52 52 53 54 55 55 56 57 58
47 47 47 46 45 45 45 45 45 45 44 46 48 49 48 46 45 46 47 48 47 47 47 47 48 48 47 47 46 46 46 46 46 47 49 49 48 47 45 42 41 41 41 42 42 42 42 41 39 36 35 35 34 33 32 32 31 31 32 33 34 35 35 36 36 37 39 41 43 45 47 48 50 50 51 52 53 54 54 55 56 56 57 58 59
50 49 49 49 48 48 48 48 48 47 46 44 46 48 48 45 43 43 43 42 42 42 42 43 44 46 47 47 47 47 48 48 48 49 48 48 47 45 42 40 38 38 38 40 41 41 40 39 38 36 35 35 35 34 33 33 33 34 35 35 37 37 38 39 40 41 42 44 46 47 48 50 51 52 52 53 54 54 55 56 57 57 58 58 60
53 52 51 51 51 52 52 52 52 51 48 44 43 45 46 44 42 41 40 40 40 39 39 40 40 41 42 43 44 46 46 46 46 46 44 43 42 42 41 40 39 38 39 40 40 40 40 39 38 37 36 36 35 35 35 35 35 36 37 37 38 39 40 41 42 43 45 46 48 49 50 52 52 53 54 54 54 55 56 56 57 58 59 60 61
54 54 53 53 54 55 56 55 53 52 50 46 44 46 46 44 42 41 40 40 40 40 40 40 40 40 41 41 42 43 44 43 43 42 41 40 39 39 39 39 38 37 39 40 39 39 40 39 39 38 38 37 37 37 37 37 38 38 39 40 41 42 43 43 45 46 47 49 50 51 51 52 53 54 54 54 55 56 56 57 59 60 61 61 61
54 54 55 55 56 57 58 57 55 53 51 48 45 44 45 45 44 42 40 39 39 39 40 40 40 40 41 41 42 42 42 42 42 41 40 39 38 37 38 38 37 37 38 39 38 38 38 39 39 40 40 39 39 40 40 41 41 42 43 44 44 45 46 47 48 49 50 51 51 52 52 53 53 54 55 55 56 57 58 59 60 61 61 60 60
56 56 57 58 59 59 59 59 57 54 52 49 46 43 44 45 44 41 39 38 39 39 40 39 39 40 41 41 42 42 42 43 43 42 41 40 39 38 37 38 37 38 39 40 40 41 41 42 42 42 42 42 43 43 44 44 45 46 47 47 48 49 50 50 51 51 52 52 52 52 53 53 54 54 56 57 58 59 59 60 60 60 60 60 59
59 58 58 60 61 60 60 61 60 57 56 54 50 46 44 42 39 37 36 37 38 40 40 39 39 40 42 43 43 44 44 45 45 43 41 40 39 38 38 38 39 40 40 41 43 44 45 45 44 45 45 46 46 47 47 48 48 49 50 50 51 52 52 52 52 52 52 52 52 53 53 54 55 55 56 57 58 58 59 60 60 60 60 60 59
61 61 60 60 62 62 62 63 63 60 57 55 54 53 52 51 48 45 44 43 42 41 41 41 41 41 42 43 43 44 43 42 40 39 37 37 38 39 39 40 40 41 42 44 45 46 47 47 47 47 48 49 49 50 50 51 51 52 52 53 53 53 53 53 52 52 53 53 53 53 54 54 54 55 56 56 57 58 59 59 60 60 60 60 59
61 61 61 61 63 64 64 65 64 61 58 57 57 58 58 58 57 54 52 50 47 44 41 40 39 39 40 41 42 42 41 39 38 39 39 39 40 40 41 40 41 42 43 45 46 47 47 48 48 49 50 51 51 52 52 52 53 53 53 53 54 54 53 53 53 54 54 54 53 53 53 54 55 55 56 57 58 59 59 60 60 60 60 60 59
64 63 61 62 64 65 66 66 65 62 60 60 61 60 59 59 58 56 54 54 53 50 48 45 44 44 44 45 46 47 46 46 45 45 45 45 44 44 43 43 43 44 44 45 45 46 47 47 48 49 51 52 52 53 53 54 54 54 54 54 55 55 55 55 55 54 54 54 54 54 55 56 57 57 58 59 60 60 60 61 61 60 60 60 60
67 66 66 65 66 67 67 66 65 63 62 62 62 62 60 60 60 60 59 58 57 57 56 55 54 54 53 52 52 52 53 53 52 51 51 50 49 49 48 48 48 48 48 48 48 48 48 48 49 49 50 51 53 53 54 54 55 55 56 56 56 56 56 56 55 54 54 55 56 57 58 59 59 59 59 60 60 60 60 61 61 61 61 61 62
67 68 68 68 69 69 69 68 67 66 64 62 61 61 61 62 65 65 63 61 59 60 60 59 59 58 57 56 55 55 55 55 55 56 55 55 54 54 53 53 52 51 51 51 51 51 51 51 51 52 52 53 54 55 55 56 56 57 57 57 58 57 57 57 57 57 58 59 61 62 62 62 61 61 61 61 61 61 62 62 62 62 63 63 64
Wind_Direction
219 217 216 215 215 217 217 215 212 212 212 212 211 210 210 208 207 209 208 204 202 201 198 192 189 186 182 179 177 176 177 178 180 185 195 207 216 222 229 236 242 251 260 269 276 286 296 304 309 311 312 312 296 257 235 227 224 219 211 202 189 167 152 138 116 89 69 66 70 72 69 64 57 49 42 37 32 27 21 16 11 7 5 3 1
224 222 221 219 218 217 217 215 214 213 213 214 213 213 212 210 209 210 210 206 204 205 202 196 194 192 188 186 185 186 187 188 190 195 204 213 222 230 235 239 242 248 256 264 272 280 287 292 297 303 311 316 312 274 231 222 218 214 209 205 198 186 170 153 135 117 86 82 86 83 74 64 53 43 34 30 27 23 19 15 10 7 4 2 359
226 226 225 223 222 221 219 216 215 215 216 216 215 215 214 212 210 210 210 208 206 208 206 201 199 198 194 192 193 194 196 197 198 203 209 216 223 231 239 244 244 248 254 261 269 279 287 291 293 299 307 312 313 284 224 216 213 208 205 204 201 192 180 173 178 186 171 127 96 78 62 55 52 40 27 23 23 20 16 11 6 3 1 0 358
228 227 227 226 225 224 222 219 217 216 217 218 218 217 216 214 212 211 211 209 207 210 210 206 204 202 199 198 198 200 203 204 204 207 213 219 225 231 238 244 247 250 255 257 266 280 290 291 291 296 301 305 304 277 220 210 208 203 200 202 201 194 188 190 197 193 185 166 107 67 42 43 49 36 23 21 20 17 13 10 6 3 2 360 358
230 228 228 228 227 227 225 223 220 218 218 219 219 220 218 217 215 214 214 212 210 211 212 210 207 206 203 202 203 204 207 209 210 214 218 223 229 233 239 244 246 250 255 260 268 281 291 291 290 290 294 295 286 267 228 209 206 202 199 200 200 196 195 200 201 192 186 185 179 173 20 28 26 19 19 20 15 10 9 9 6 5 5 1 357
234 231 230 229 229 229 227 225 222 220 219 219 220 221 221 219 219 218 217 215 213 214 215 213 211 209 207 205 206 207 209 211 215 220 225 229 232 236 239 244 247 248 254 262 271 281 285 285 284 282 282 276 266 257 233 211 205 202 200 199 198 198 202 207 205 195 190 190 197 267 358 16 14 8 10 12 8 5 7 7 5 3 3 2 357
239 236 234 232 231 230 229 227 225 222 221 220 221 222 222 221 221 222 221 220 218 218 218 217 214 213 211 208 208 209 210 213 218 225 231 234 237 240 243 246 248 249 255 261 268 276 278 273 271 272 268 254 248 245 229 210 203 202 202 200 198 202 208 212 209 202 199 203 229 324 339 347 358 360 358 358 359 0 2 5 4 360 358 358 355
241 240 239 236 234 232 231 229 226 224 222 222 222 223 223 223 223 224 224 224 223 222 222 221 219 218 215 212 211 211 211 214 222 230 235 236 238 243 248 251 252 252 255 260 262 265 265 261 257 257 252 241 237 236 225 210 202 201 203 202 202 206 211 213 211 208 209 219 247 296 311 319 336 347 346 347 352 354 356 359 0 357 354 354 350
239 240 241 240 237 234 233 231 228 226 224 223 223 224 225 224 224 225 226 227 226 225 225 225 224 223 221 217 214 213 213 217 226 235 239 237 240 246 251 257 259 256 255 257 257 256 254 251 247 244 239 232 232 233 223 211 205 202 203 205 207 210 213 214 213 212 214 223 243 269 288 303 319 333 337 339 344 347 350 353 355 353 351 352 349
239 241 243 242 239 235 234 233 231 228 227 225 225 226 226 227 226 226 227 229 229 228 228 228 227 227 225 222 218 216 217 221 229 239 241 239 242 248 253 258 260 260 259 257 255 251 247 244 239 235 230 225 227 230 224 214 210 206 204 208 213 215 216 217 216 215 217 225 240 256 275 294 309 323 330 333 337 341 344 347 350 349 348 350 350
242 243 244 244 241 237 235 234 234 231 229 227 226 227 228 229 228 228 229 231 232 231 230 230 230 230 229 226 223 220 221 225 232 241 244 242 245 250 252 256 261 263 263 261 258 253 246 240 234 229 224 221 224 229 225 218 216 212 209 212 218 221 219 219 220 220 222 229 242 256 273 289 304 317 323 327 331 335 338 342 344 346 345 346 348
244 243 244 245 245 242 237 235 235 234 231 229 228 229 230 230 230 230 230 232 233 233 233 232 231 231 231 230 227 226 226 229 236 244 246 244 246 250 252 255 259 261 260 260 259 255 247 238 230 224 221 219 222 227 225 221 219 219 217 218 222 226 225 224 225 227 229 234 244 262 276 287 301 314 318 322 327 330 335 338 340 341 342 343 343
245 244 244 245 246 245 242 237 236 236 234 231 230 230 231 232 233 233 233 234 234 234 234 234 233 232 232 231 231 230 230 232 239 246 249 247 246 249 252 254 257 259 259 259 258 256 250 240 229 223 220 218 221 226 226 224 222 223 226 226 227 229 230 229 230 234 239 242 249 265 276 283 296 310 315 317 322 326 331 335 336 338 340 340 339
245 244 243 244 245 245 244 241 239 238 237 234 232 232 232 233 235 236 236 236 236 236 236 235 235 233 232 232 232 233 234 236 241 247 249 248 247 249 251 253 257 260 260 259 257 255 253 243 231 224 220 218 220 224 226 224 224 227 230 232 232 232 232 233 234 240 245 248 253 264 274 283 293 304 310 313 318 322 327 332 333 335 339 339 336
244 244 241 242 244 245 245 243 242 241 240 238 235 234 234 234 236 238 239 239 239 239 238 237 237 235 234 233 233 235 236 238 242 247 249 249 248 249 250 252 256 260 261 261 259 257 254 245 234 228 222 218 220 224 225 224 225 229 232 234 238 238 237 235 238 245 249 251 256 264 272 281 290 299 306 310 315 321 326 330 331 333 336 337 333
240 242 241 241 243 246 245 243 242 242 243 241 239 237 236 236 238 240 242 242 241 241 240 239 239 238 237 235 235 236 237 239 242 246 248 249 249 250 250 251 254 258 260 261 262 260 256 245 235 228 223 221 223 225 225 224 225 228 231 236 240 243 242 241 244 250 254 256 264 272 278 286 293 301 308 311 314 319 324 328 329 330 333 334 333
237 240 242 242 244 247 247 244 242 242 243 243 242 241 239 238 239 241 242 243 243 243 243 242 241 240 240 238 237 237 238 239 242 245 246 247 249 250 250 250 252 257 260 262 262 258 252 243 235 230 226 225 228 229 228 227 226 228 233 237 241 243 245 248 252 256 259 264 272 277 282 288 293 300 306 309 313 317 323 327 327 328 330 332 331
233 237 241 243 245 249 249 246 243 242 243 244 244 243 242 241 240 241 242 243 243 243 243 243 243 243 242 241 240 239 240 240 242 244 245 245 247 249 250 249 251 255 259 260 258 254 250 243 236 232 229 228 232 233 233 232 231 232 235 238 241 244 247 251 255 260 265 269 273 277 282 288 292 297 301 306 311 316 321 325 326 326 328 328 328
231 234 240 243 246 250 251 249 244 242 242 243 244 244 243 242 241 241 241 242 242 243 244 245 245 245 245 244 241 241 241 241 242 244 244 244 245 247 249 248 249 253 256 258 257 255 253 249 242 238 234 234 237 239 240 239 237 237 240 241 243 247 250 253 257 262 268 271 272 275 281 286 290 294 299 305 311 315 319 322 323 324 324 324 325
229 232 237 240 244 249 252 251 248 244 243 242 242 242 242 242 242 241 242 242 242 243 244 246 247 247 246 244 242 240 240 240 241 243 243 242 243 245 248 249 249 251 254 257 258 257 257 256 252 247 243 242 243 244 244 245 245 245 246 247 248 252 255 258 262 265 267 270 273 277 281 286 290 294 299 306 311 314 317 320 321 322 322 322 322
227 230 234 239 243 248 252 254 251 247 244 242 241 241 240 241 241 242 242 243 243 244 245 247 247 247 246 244 241 239 239 239 240 241 242 241 242 244 248 250 251 253 255 258 260 262 262 261 259 255 252 251 251 250 248 248 249 251 252 253 255 259 263 265 267 268 268 270 274 277 281 285 290 295 301 307 311 314 316 318 320 320 320 319 320
226 229 234 239 244 249 253 254 252 248 246 245 243 241 239 239 240 241 243 244 244 244 245 246 247 246 244 242 239 238 239 239 239 239 240 240 241 244 248 251 253 255 258 261 264 265 265 263 261 259 257 256 256 256 254 252 253 255 257 259 262 266 269 269 269 270 271 274 276 279 282 285 290 295 301 306 310 313 314 316 318 318 319 318 318
228 231 235 241 245 249 252 253 251 248 247 247 246 244 240 239 239 240 242 243 243 244 244 245 245 243 241 238 237 236 238 239 239 238 239 240 241 244 248 252 255 257 259 262 264 266 267 267 265 262 260 259 260 260 259 257 258 259 261 263 266 268 269 269 270 272 274 277 279 281 284 287 291 296 301 305 308 310 312 313 315 317 317 317 317
229 231 236 240 244 248 251 251 249 247 247 247 246 244 242 239 239 240 241 241 241 242 243 243 242 239 236 235 235 236 238 239 239 238 238 240 241 244 248 252 255 258 260 262 265 268 270 270 265 260 259 259 259 259 258 258 259 261 264 266 267 267 268 269 271 273 275 278 280 282 285 289 293 298 301 304 306 308 310 311 313 314 315 315 316
228 230 235 240 244 247 248 248 246 246 245 245 244 243 241 240 238 238 239 240 240 240 240 239 237 235 234 235 236 237 237 237 237 236 238 240 242 244 247 251 255 259 263 266 269 270 270 264 258 254 252 252 253 255 256 258 260 262 263 264 266 267 268 269 271 273 276 278 280 283 288 292 295 298 301 303 304 306 308 309 311 312 313 314 314
228 230 235 239 242 244 245 244 244 244 244 242 241 240 239 237 236 236 236 237 237 236 236 235 234 235 235 236 235 234 233 233 234 235 238 241 243 246 249 253 257 262 266 269 270 267 261 255 251 249 248 248 251 254 257 260 261 262 262 263 264 265 266 269 272 274 276 278 281 285 289 293 295 297 299 301 303 305 306 307 309 310 311 311 312
229 231 235 238 239 240 241 241 242 242 242 240 238 237 236 235 234 234 235 234 233 233 233 233 233 233 233 233 233 232 232 233 235 238 241 245 248 251 254 257 260 263 265 266 264 260 254 249 246 246 247 248 251 255 259 261 262 262 262 263 264 266 269 271 272 272 275 279 283 288 291 293 295 296 297 299 301 303 305 306 307 308 308 309 310
229 232 235 236 235 236 238 239 239 239 237 236 234 233 233 233 232 231 231 231 230 230 231 231 231 230 230 231 232 233 234 235 238 241 245 247 250 253 255 257 259 260 260 260 259 258 256 253 250 249 251 253 255 258 262 264 265 265 266 267 268 269 270 270 271 274 278 283 286 289 291 292 294 295 296 298 301 303 304 304 305 306 307 308 309
230 233 234 231 231 233 235 236 236 235 234 233 233 232 231 231 231 229 229 229 229 230 230 230 230 229 230 231 234 237 238 239 241 243 243 245 248 252 254 256 258 259 260 259 259 259 260 260 259 259 259 259 261 263 266 268 269 268 269 270 270 269 269 272 275 279 282 285 287 289 290 291 293 295 297 298 300 301 302 302 303 305 306 307 308
230 231 229 227 229 232 234 234 234 234 233 233 232 231 231 231 230 230 230 230 230 230 230 230 231 231 232 234 237 239 238 237 238 241 244 247 251 255 258 259 261 264 265 266 266 267 267 269 269 267 265 264 264 266 268 269 268 268 270 273 273 273 274 276 278 278 279 281 284 286 289 292 294 296 297 298 298 299 300 301 303 304 306 307 308
228 227 226 227 230 232 234 235 235 234 234 233 232 230 229 229 229 229 228 227 226 227 228 228 230 232 233 233 234 235 235 235 238 242 247 250 252 254 257 258 260 263 266 269 272 275 276 277 278 277 275 273 271 270 270 271 271 272 274 276 277 278 278 278 277 277 277 279 282 286 291 294 296 296 296 296 297 298 299 301 303 304 305 306 307
226 225 225 228 232 234 236 236 235 235 234 232 231 230 229 229 229 229 228 226 225 226 228 228 230 232 233 231 231 234 236 240 243 246 249 252 253 253 256 258 259 261 264 268 271 273 274 275 276 277 278 278 278 277 276 276 275 276 276 277 277 278 278 278 278 277 277 279 283 288 293 295 295 294 294 294 296 298 299 301 302 303 305 306 307
224 224 226 229 232 235 237 237 235 235 235 233 231 230 229 229 228 228 228 227 227 228 230 231 232 233 233 233 234 237 240 242 245 247 251 253 255 256 257 260 261 262 263 266 269 270 272 274 275 277 279 279 280 280 279 279 279 279 280 279 278 277 276 276 277 277 277 280 285 289 292 293 292 291 292 293 295 297 299 301 302 303 304 306 307
223 224 227 230 232 235 238 239 238 236 235 234 232 231 230 229 228 227 228 229 230 231 232 233 234 236 236 236 238 241 243 244 246 249 251 254 256 257 259 260 262 263 265 266 268 271 273 275 276 277 277 277 277 278 278 278 279 280 281 282 281 278 275 274 275 277 280 283 287 289 290 290 289 289 291 293 295 297 299 301 302 303 304 306 307
223 226 228 230 233 236 238 239 239 238 236 234 233 233 232 231 228 227 228 230 231 233 233 234 236 237 238 239 241 242 244 246 247 248 251 253 255 257 259 260 262 263 264 266 269 272 275 276 277 276 275 275 275 275 275 276 276 276 278 280 280 278 275 272 273 278 281 283 285 287 287 287 288 290 292 294 295 297 299 301 302 303 304 305 306
225 227 229 231 233 236 238 238 238 237 237 236 236 236 235 233 230 229 229 230 231 233 235 236 236 237 238 240 242 244 246 247 249 250 251 253 256 259 260 262 263 264 266 268 270 272 273 274 274 273 272 272 272 273 274 274 273 274 275 276 277 277 275 272 273 276 279 280 282 284 285 287 289 291 292 294 295 296 298 300 301 301 303 304 304
229 229 230 233 236 237 237 238 238 237 236 236 236 237 238 238 235 231 231 232 232 233 235 236 237 237 239 240 242 244 246 248 250 252 254 256 259 261 262 263 265 266 267 270 273 273 273 273 272 270 269 269 270 270 271 271 271 272 273 274 275 276 275 273 273 274 276 278 280 282 285 287 289 291 292 294 294 295 297 298 299 300 301 303 304
229 229 230 234 236 236 237 238 239 238 238 238 239 239 240 241 239 235 233 233 233 233 234 235 237 238 240 241 243 245 247 249 251 253 256 258 260 262 263 265 265 265 267 271 274 274 272 271 269 267 266 265 265 265 266 268 270 271 272 273 275 276 276 277 277 277 277 277 278 281 284 286 288 290 291 292 293 294 296 297 298 299 301 302 303
228 229 231 233 234 235 236 237 239 241 242 243 244 243 243 242 240 237 236 235 236 237 237 237 238 239 241 243 246 248 250 253 254 257 259 261 263 266 269 270 270 269 268 270 273 274 272 270 267 264 263 263 263 264 264 264 265 267 270 271 273 275 276 277 277 276 275 276 278 280 283 285 287 288 289 291 292 293 294 296 297 298 300 301 302
229 230 232 235 237 239 240 241 242 243 245 248 248 247 245 242 238 236 237 238 240 241 242 242 242 242 243 245 247 250 253 256 258 261 263 265 268 270 271 270 270 269 267 268 270 271 271 270 269 266 264 264 264 265 265 265 265 267 269 270 272 273 273 274 273 273 275 277 279 280 282 283 284 286 287 289 290 292 293 295 296 297 299 300 302
228 231 233 235 238 241 242 245 245 243 245 249 250 246 240 235 232 232 235 238 240 242 244 244 244 245 245 247 249 253 256 259 260 262 264 267 268 268 267 266 266 267 266 266 267 266 265 266 267 266 263 261 261 262 263 265 266 267 268 269 271 272 273 274 275 275 277 278 279 280 282 282 283 285 286 287 289 291 292 294 295 296 298 300 301
227 230 233 235 238 240 242 245 246 243 244 247 246 240 235 233 232 233 235 239 241 243 244 245 245 246 247 248 251 254 256 258 260 261 262 263 263 264 264 264 264 265 264 264 263 261 260 261 262 263 262 261 262 263 264 264 265 266 268 269 271 272 273 274 275 276 276 277 278 279 281 282 283 285 286 287 289 290 291 293 294 296 298 299 300
228 231 233 235 238 240 240 242 245 246 246 244 242 239 236 234 232 232 234 239 242 244 245 246 246 247 248 249 250 252 254 256 257 258 258 259 259 260 261 262 262 262 263 262 261 259 257 258 259 262 264 265 266 266 267 267 268 269 270 271 271 272 273 274 274 275 276 276 278 279 281 282 284 285 286 288 289 290 292 293 295 296 297 299 301
229 232 235 237 239 241 242 242 244 245 244 243 244 242 236 231 229 230 232 236 241 244 245 246 246 246 247 248 249 251 253 254 254 255 256 256 257 257 258 259 260 259 260 259 257 255 256 258 260 262 264 266 267 268 268 269 270 271 272 272 273 273 274 274 275 275 276 278 279 280 282 283 284 285 287 288 289 291 292 294 295 296 298 299 301
230 232 234 237 238 241 243 243 243 244 244 244 244 241 232 227 227 228 229 233 240 243 245 245 246 245 246 247 247 249 250 251 253 255 256 256 255 255 255 257 258 259 259 259 259 259 259 261 262 263 265 266 267 267 268 269 270 271 271 272 272 273 274 274 275 276 277 278 280 281 282 283 284 286 287 288 290 291 293 294 295 297 298 299 300
229 231 233 236 238 239 241 241 241 242 244 243 239 233 229 227 228 229 232 238 243 245 245 246 246 245 244 244 245 248 251 254 255 256 254 251 251 252 254 256 258 259 260 261 262 262 263 263 264 265 267 267 268 268 268 268 269 269 270 271 272 273 273 274 275 277 278 279 280 281 282 284 285 286 288 289 290 292 293 294 295 296 297 297 297
227 229 231 234 237 238 240 240 239 238 239 237 232 229 230 234 237 240 243 246 246 244 244 244 243 241 241 242 244 248 251 253 253 251 250 248 249 251 253 254 256 258 259 260 261 262 264 265 266 266 267 267 267 267 267 268 268 269 269 270 271 272 273 275 276 277 278 279 280 282 283 284 285 287 288 289 290 291 292 293 293 294 294 294 295
233 233 233 235 237 239 240 240 238 238 238 235 229 227 231 236 240 242 245 246 245 242 240 238 236 236 239 242 243 245 248 249 248 248 249 250 250 250 251 252 252 253 255 257 258 260 262 264 265 266 266 266 267 267 267 268 268 269 270 271 272 273 274 275 276 277 278 279 280 281 282 283 284 286 287 288 289 290 290 291 291 291 292 292 293
239 240 240 241 242 243 243 242 241 240 241 238 232 230 232 236 239 241 243 244 244 243 241 239 238 239 243 245 245 245 247 250 250 251 251 250 249 249 249 249 249 251 252 254 256 259 261 262 263 264 265 266 267 267 268 269 269 270 271 272 272 273 274 275 275 276 277 278 278 280 281 283 284 286 287 288 289 289 290 290 290 290 291 291 291
239 240 242 244 245 246 247 247 245 244 244 242 238 235 236 238 242 244 245 244 244 243 243 243 243 245 246 247 246 246 247 249 250 250 250 249 249 250 250 250 251 253 254 255 257 258 260 262 263 264 264 265 266 267 267 268 268 269 269 270 271 272 273 273 273 273 274 275 277 280 282 284 285 287 288 288 289 290 290 290 290 290 289 289 289
240 240 242 243 244 246 247 248 247 245 245 244 242 241 242 245 246 246 245 244 244 244 244 245 247 247 247 247 247 247 248 248 248 249 249 250 250 251 252 253 254 255 257 258 259 260 261 262 263 263 264 264 265 265 266 266 267 268 268 269 270 271 270 270 271 272 274 276 278 280 282 284 285 287 288 289 289 290 290 290 289 288 287 287 287